Weather History for KHUT - December, 2013

Change the Weather History Date:

Sunday, December 15, 2013

  Actual Average Record
Temperature  
Mean Temperature 40 °F -  
Max Temperature 61 °F 42 °F 64 °F (2006)
Min Temperature 19 °F 20 °F 3 °F (2008)
Degree Days  
Heating Degree Days 25    
Moisture  
Dew Point 20 °F    
Average Humidity 52    
Maximum Humidity 89    
Minimum Humidity 21    
Precipitation  
Precipitation 0.00 in - - ()
Sea Level Pressure  
Sea Level Pressure 30.12 in    
Wind  
Wind Speed 5 mph (West)    
Max Wind Speed 18 mph    
Max Gust Speed 25 mph    
Visibility 10 miles    
Events      
Averages and records for this station are not official NWS values.
T = Trace of Precipitation, MM = Missing Value Source: NWS Daily Summary

Daily Weather History Graph

Daily Weather History Graph

Search for Another Location

Airport or City:

Trip Planner

Search our weather history database for the weather conditions in past years. The results will help you decide how hot, cold, wet, or windy it might be!

Date:

Astronomy

Dec. 15, 2013 Rise Set
Actual Time 7:40 AM CST 5:12 PM CST
Civil Twilight 7:11 AM CST 5:42 PM CST
Nautical Twilight 6:38 AM CST 6:15 PM CST
Astronomical Twilight 6:05 AM CST 6:47 PM CST
Moon 4:17 PM CST (12/15) 5:59 AM CST (12/15)
Length of Visible Light 10h 31m
Length of Day
9h 32m
Waxing Gibbous, 98% of the Moon is Illuminated
Dec 15
Waxing Gibbous
Dec 17
Full
Dec 25
Last Quarter
Jan 1
New
Jan 7
First Quarter

Hourly Weather History & Observations

Time (CST) Temp. Windchill Dew Point Humidity Pressure Visibility Wind Dir Wind Speed Gust Speed Precip Events Conditions
12:52 AM 19.9 °F - 16.0 °F 85% 30.23 in 7.0 mi Calm Calm - N/A   Clear
1:52 AM 19.9 °F - 17.1 °F 89% 30.21 in 9.0 mi Calm Calm - N/A   Clear
2:52 AM 21.9 °F - 18.0 °F 85% 30.20 in 9.0 mi Calm Calm - N/A   Clear
3:52 AM 21.0 °F - 17.1 °F 85% 30.19 in 10.0 mi Calm Calm - N/A   Clear
4:52 AM 24.1 °F 17.0 °F 18.0 °F 77% 30.18 in 10.0 mi NW 5.8 mph - N/A   Clear
5:52 AM 21.9 °F 15.7 °F 17.1 °F 82% 30.18 in 10.0 mi WNW 4.6 mph - N/A   Clear
6:52 AM 21.0 °F - 16.0 °F 81% 30.18 in 10.0 mi Calm Calm - N/A   Clear
7:52 AM 25.0 °F 20.7 °F 18.0 °F 75% 30.18 in 10.0 mi West 3.5 mph - N/A   Clear
8:52 AM 32.0 °F 25.6 °F 23.0 °F 69% 30.18 in 10.0 mi West 6.9 mph - N/A   Clear
9:52 AM 39.9 °F 33.4 °F 23.0 °F 51% 30.17 in 10.0 mi WNW 10.4 mph - N/A   Clear
10:52 AM 52.0 °F - 21.0 °F 30% 30.14 in 10.0 mi West 16.1 mph - N/A   Clear
11:52 AM 55.0 °F - 19.9 °F 25% 30.12 in 10.0 mi West 12.7 mph - N/A   Clear
12:52 PM 57.9 °F - 19.9 °F 23% 30.09 in 10.0 mi West 15.0 mph - N/A   Clear
1:52 PM 59.0 °F - 19.9 °F 22% 30.06 in 10.0 mi West 18.4 mph 25.3 mph N/A   Clear
2:52 PM 61.0 °F - 21.0 °F 21% 30.04 in 10.0 mi West 16.1 mph - N/A   Clear
3:52 PM 60.1 °F - 21.0 °F 22% 30.04 in 10.0 mi West 13.8 mph - N/A   Clear
4:52 PM 57.9 °F - 21.9 °F 25% 30.03 in 10.0 mi West 10.4 mph - N/A   Clear
5:52 PM 53.1 °F - 21.9 °F 30% 30.04 in 10.0 mi West 9.2 mph - N/A   Clear
6:52 PM 50.0 °F - 21.9 °F 33% 30.05 in 10.0 mi West 8.1 mph - N/A   Clear
7:52 PM 45.0 °F 41.8 °F 21.0 °F 39% 30.06 in 10.0 mi West 5.8 mph - N/A   Clear
8:52 PM 42.1 °F - 21.0 °F 43% 30.06 in 10.0 mi Calm Calm - N/A   Clear
9:52 PM 37.9 °F 33.5 °F 19.9 °F 48% 30.05 in 10.0 mi West 5.8 mph - N/A   Clear
10:52 PM 37.9 °F 33.5 °F 19.9 °F 48% 30.04 in 10.0 mi WNW 5.8 mph - N/A   Clear
11:52 PM 33.1 °F 28.7 °F 19.9 °F 59% 30.04 in 10.0 mi WNW 4.6 mph - N/A   Clear